Vorticity
7 6 7 6 9 7 7 4 5 5 6 7 11 8 6 8 11 8 6 9 4 4 6 4 2 4 3 3 3 4 2 3 4 6 2 3 7 8 6 4 6 5 7 6
7 5 5 8 7 7 5 4 5 7 6 6 6 11 9 8 7 7 4 5 5 7 5 4 9 8 3 4 5 2 3 3 5 6 4 4 6 10 8 11 6 11 8 7
8 6 7 7 5 7 7 5 5 5 6 7 9 9 11 13 8 13 11 5 4 7 8 5 5 5 5 4 3 3 4 4 7 4 4 4 10 10 9 5 7 8 9 9
5 5 6 6 7 6 6 3 5 7 6 18 10 15 0 12 10 10 6 9 10 5 5 6 6 5 5 2 5 5 5 7 3 3 5 10 11 7 4 5 7 11 8 11
5 6 7 8 7 7 2 10 9 8 9 6 7 6 12 4 11 6 6 4 7 5 5 5 5 5 4 6 5 4 6 4 3 6 10 12 10 6 6 9 9 8 14 8
8 10 8 6 9 8 8 10 9 8 8 7 5 5 15 7 4 6 5 7 6 8 8 7 6 5 6 5 4 5 4 4 6 8 11 11 7 7 6 9 9 9 7 10
10 10 8 7 8 8 9 10 9 12 15 14 7 8 -1 9 7 4 5 6 6 7 6 5 5 4 4 5 5 5 5 5 11 19 7 10 3 3 10 12 11 10 7 12
10 14 12 10 8 6 5 5 4 3 7 5 5 7 5 6 7 10 9 9 8 7 4 5 6 5 7 7 6 4 7 15 14 9 11 4 4 3 11 12 9 8 12 14
9 9 13 10 9 8 9 9 6 8 6 7 10 7 10 8 8 6 8 8 9 9 8 8 8 9 6 6 6 8 14 11 0 -1 10 13 10 -4 15 11 9 13 13 17
7 10 9 9 11 10 8 4 8 7 9 7 14 9 4 11 11 10 8 8 9 7 7 8 7 5 6 7 10 12 9 9 12 10 15 2 6 18 17 7 13 8 19 22
10 12 11 8 11 12 9 8 7 6 -1 8 5 6 10 9 8 9 8 8 8 8 6 5 7 5 6 11 8 8 7 13 16 16 10 12 20 9 10 14 7 24 17 12
8 5 7 15 8 5 6 7 8 7 12 7 5 4 9 8 9 8 7 4 4 5 5 6 5 6 8 7 8 7 13 9 6 10 18 10 8 10 13 15 20 21 18 16
3 5 8 6 7 8 10 13 14 8 7 -4 7 7 9 7 7 9 9 7 6 6 7 6 7 9 9 6 10 7 9 5 10 15 11 10 9 13 18 0 26 20 10 7
4 6 6 5 0 10 12 3 9 8 6 7 9 6 4 4 5 12 11 8 8 7 5 7 8 8 10 8 2 8 6 6 18 12 10 10 16 15 14 13 28 8 12 14
13 4 5 6 13 4 2 5 6 4 6 2 2 2 7 2 5 14 9 8 9 9 9 9 11 11 7 13 7 6 6 17 14 10 10 11 11 12 14 34 8 8 1 18
-3 31 8 3 -5 1 5 6 2 2 6 6 4 3 3 2 12 11 7 7 7 10 11 13 8 9 13 11 7 4 14 17 10 6 11 9 15 24 52 14 13 16 16 22
14 5 13 1 16 -5 8 -2 4 4 3 7 4 1 5 6 13 12 11 9 11 17 13 6 10 16 9 5 5 11 18 12 6 7 6 6 68 23 21 13 15 16 22 14
8 27 12 5 27 6 3 2 10 8 7 4 2 4 13 14 10 11 4 13 19 12 8 9 9 7 5 5 6 17 13 9 6 7 4 56 15 4 15 11 15 17 17 19
20 9 21 12 9 4 15 6 9 9 9 5 7 18 14 7 12 12 16 14 7 9 8 13 7 5 7 5 8 20 8 5 13 2 60 5 15 13 15 12 6 20 9 16
20 20 10 26 8 -5 17 9 14 5 7 13 15 11 8 -3 13 12 9 8 9 10 11 5 4 7 6 6 14 15 9 10 1 58 14 13 23 11 15 8 11 24 9 14
16 22 19 8 13 14 15 2 24 -3 15 18 11 8 -1 -3 13 14 10 8 10 11 6 6 7 8 5 5 20 12 5 19 29 26 18 11 15 21 7 7 20 8 5 26
10 18 23 10 12 -4 37 9 6 1 36 7 4 10 1 3 18 10 10 4 10 6 6 7 7 6 5 3 22 11 8 14 35 21 17 7 11 9 7 11 17 8 24 18
14 11 16 15 25 14 7 20 26 -1 17 -2 10 7 7 14 10 10 7 9 7 6 6 7 6 8 6 3 24 12 11 31 27 10 14 7 5 -2 8 16 18 -2 23 13
9 14 11 16 16 14 2 38 27 18 25 21 11 3 1 10 11 7 7 9 6 5 7 6 6 8 7 3 24 7 8 38 20 13 9 6 5 16 23 19 16 4 8 -6
9 19 15 12 10 20 13 4 18 19 -15 33 17 15 12 8 8 8 7 8 6 5 6 6 4 9 9 3 24 9 6 33 15 16 10 18 26 21 19 19 19 11 4 12
7 10 14 12 11 8 17 12 5 5 0 6 4 10 7 8 8 11 9 7 5 6 6 5 5 13 8 5 23 11 10 29 16 17 19 20 24 22 16 15 13 23 37 31
Height
5867 5869 5870 5871 5873 5874 5875 5875 5875 5875 5874 5874 5873 5872 5871 5870 5869 5870 5869 5869 5868 5868 5867 5865 5863 5861 5858 5854 5851 5847 5844 5841 5837 5833 5828 5823 5818 5812 5806 5800 5794 5788 5782 5776
5864 5864 5866 5867 5868 5870 5871 5871 5871 5870 5869 5869 5868 5868 5866 5866 5866 5866 5866 5866 5865 5864 5862 5861 5859 5855 5851 5847 5844 5840 5835 5830 5826 5821 5816 5811 5806 5800 5795 5790 5784 5778 5771 5764
5859 5859 5861 5863 5864 5865 5866 5866 5865 5866 5865 5864 5863 5863 5863 5862 5862 5862 5862 5861 5860 5857 5855 5854 5851 5848 5844 5840 5836 5831 5826 5821 5816 5810 5805 5799 5794 5788 5782 5776 5771 5764 5757 5752
5853 5853 5855 5857 5858 5859 5859 5861 5861 5860 5861 5860 5859 5861 5857 5858 5857 5857 5856 5855 5854 5852 5850 5847 5844 5840 5837 5832 5827 5822 5818 5812 5807 5801 5794 5789 5782 5776 5771 5765 5759 5751 5744 5738
5847 5848 5849 5851 5852 5853 5853 5854 5855 5855 5855 5855 5854 5855 5856 5852 5851 5850 5850 5848 5847 5846 5843 5840 5836 5833 5829 5824 5820 5815 5809 5803 5797 5791 5785 5778 5771 5764 5758 5751 5744 5736 5729 5723
5842 5843 5844 5844 5846 5846 5847 5848 5849 5849 5849 5849 5848 5849 5851 5847 5845 5843 5843 5841 5840 5838 5835 5833 5829 5825 5820 5816 5811 5806 5800 5794 5788 5781 5774 5767 5760 5754 5747 5739 5731 5723 5714 5706
5836 5837 5838 5839 5839 5840 5841 5842 5844 5844 5843 5844 5844 5844 5845 5841 5841 5839 5838 5835 5832 5831 5828 5825 5822 5817 5812 5808 5803 5798 5791 5786 5779 5771 5764 5758 5751 5744 5736 5727 5719 5710 5701 5691
5829 5830 5831 5833 5834 5835 5835 5837 5838 5839 5840 5841 5838 5839 5836 5835 5834 5833 5831 5829 5827 5826 5822 5819 5814 5809 5805 5801 5795 5789 5783 5776 5768 5762 5755 5748 5741 5733 5723 5714 5705 5696 5686 5675
5822 5823 5824 5826 5827 5829 5828 5830 5832 5831 5832 5832 5834 5831 5830 5829 5827 5826 5824 5822 5820 5818 5814 5810 5805 5801 5797 5791 5786 5780 5774 5767 5760 5754 5746 5739 5730 5721 5711 5702 5692 5682 5672 5662
5815 5817 5817 5818 5820 5822 5824 5824 5825 5825 5825 5827 5828 5825 5824 5822 5820 5819 5817 5814 5812 5808 5805 5801 5797 5793 5788 5782 5777 5770 5764 5757 5750 5743 5735 5727 5717 5708 5699 5690 5680 5670 5659 5651
5809 5810 5812 5812 5814 5816 5816 5817 5819 5820 5819 5818 5820 5823 5819 5816 5814 5813 5810 5806 5803 5800 5796 5792 5788 5783 5778 5772 5767 5761 5754 5747 5739 5731 5723 5714 5705 5696 5687 5678 5669 5659 5651 5644
5802 5803 5805 5808 5806 5809 5809 5812 5813 5813 5813 5812 5812 5815 5812 5811 5809 5806 5804 5801 5796 5791 5787 5784 5780 5774 5769 5765 5758 5751 5745 5737 5729 5720 5711 5702 5694 5685 5676 5668 5659 5650 5643 5636
5795 5795 5798 5800 5801 5803 5805 5806 5806 5806 5805 5805 5805 5809 5804 5804 5802 5800 5796 5792 5788 5784 5780 5777 5772 5767 5763 5756 5750 5744 5736 5728 5718 5709 5701 5692 5684 5675 5666 5658 5649 5642 5636 5630
5785 5788 5788 5792 5799 5800 5796 5798 5799 5798 5798 5800 5799 5800 5797 5795 5794 5793 5790 5786 5782 5779 5775 5771 5766 5761 5755 5749 5743 5736 5727 5718 5709 5700 5691 5682 5674 5665 5657 5650 5642 5636 5630 5624
5775 5777 5781 5784 5788 5790 5790 5791 5791 5790 5792 5792 5794 5791 5791 5789 5786 5784 5781 5778 5775 5772 5768 5763 5759 5753 5748 5742 5735 5727 5718 5709 5700 5691 5682 5673 5664 5655 5647 5641 5635 5630 5624 5618
5765 5766 5769 5770 5772 5779 5781 5783 5782 5783 5785 5785 5785 5784 5782 5781 5779 5776 5773 5771 5768 5765 5761 5757 5752 5746 5741 5735 5728 5720 5710 5701 5692 5683 5674 5663 5654 5644 5637 5633 5630 5625 5619 5613
5756 5758 5759 5760 5764 5766 5768 5772 5774 5776 5778 5778 5777 5775 5773 5773 5771 5769 5767 5764 5761 5757 5754 5750 5745 5740 5735 5728 5721 5712 5702 5693 5684 5675 5664 5654 5644 5638 5633 5630 5627 5621 5615 5610
5747 5748 5749 5751 5751 5753 5760 5761 5762 5767 5768 5770 5768 5767 5766 5765 5763 5761 5759 5758 5754 5751 5748 5744 5739 5735 5729 5722 5713 5703 5695 5686 5677 5666 5656 5646 5642 5637 5633 5629 5624 5619 5614 5609
5738 5740 5741 5743 5745 5750 5748 5751 5754 5758 5761 5761 5761 5759 5758 5757 5755 5754 5753 5751 5748 5746 5742 5738 5734 5729 5722 5714 5706 5697 5689 5680 5670 5660 5649 5644 5640 5635 5632 5628 5623 5618 5614 5610
5729 5731 5732 5735 5735 5736 5744 5740 5745 5748 5750 5752 5752 5751 5751 5751 5748 5749 5746 5745 5742 5739 5736 5733 5729 5723 5716 5708 5700 5692 5683 5674 5664 5653 5647 5643 5639 5635 5632 5628 5623 5619 5615 5612
5720 5721 5723 5725 5726 5729 5729 5731 5734 5739 5744 5742 5744 5744 5744 5744 5743 5742 5741 5740 5737 5734 5731 5728 5724 5717 5711 5704 5695 5686 5678 5669 5659 5651 5646 5643 5639 5636 5632 5629 5624 5621 5617 5614
5711 5713 5715 5716 5717 5718 5720 5722 5725 5729 5731 5734 5737 5738 5739 5739 5738 5737 5736 5735 5733 5730 5727 5723 5718 5713 5707 5699 5690 5682 5674 5664 5654 5648 5645 5642 5639 5636 5633 5630 5626 5623 5620 5617
5704 5706 5707 5708 5709 5711 5711 5712 5715 5718 5722 5724 5729 5731 5733 5733 5732 5731 5731 5730 5728 5725 5722 5719 5715 5709 5703 5695 5685 5678 5670 5660 5651 5647 5644 5641 5638 5635 5632 5629 5628 5626 5623 5620
5696 5698 5699 5700 5701 5703 5704 5705 5707 5711 5714 5717 5722 5724 5727 5727 5726 5725 5726 5725 5723 5721 5718 5715 5711 5706 5699 5691 5682 5674 5666 5657 5650 5646 5643 5640 5636 5633 5630 5629 5628 5627 5626 5623
5688 5691 5693 5694 5693 5695 5698 5700 5702 5705 5708 5711 5715 5718 5720 5720 5720 5720 5720 5720 5718 5716 5714 5711 5708 5703 5696 5688 5680 5673 5664 5655 5650 5646 5642 5638 5634 5631 5630 5629 5629 5629 5627 5625
5681 5684 5686 5687 5688 5688 5691 5694 5697 5700 5703 5707 5710 5711 5714 5715 5715 5715 5715 5715 5714 5712 5710 5708 5704 5700 5694 5686 5678 5671 5663 5656 5650 5646 5643 5638 5634 5633 5632 5632 5632 5631 5630 5629